Date,TemperatureHighF,TemperatureAvgF,TemperatureLowF,DewpointHighF,DewpointAvgF,DewpointLowF,HumidityHigh,HumidityAvg,HumidityLow,PressureMaxIn,PressureMinIn,WindSpeedMaxMPH,WindSpeedAvgMPH,GustSpeedMaxMPH,PrecipitationSumIn
2013-3-1,65.0,61.3,58.0,58.0,52.6,48.0,86,73,65,30.00,29.91,4,2,10,0.00
2013-3-2,66.0,57.6,50.0,51.0,44.7,38.0,83,63,44,30.04,29.97,9,3,21,0.00
2013-3-3,62.0,53.4,47.0,45.0,42.5,38.0,84,67,51,30.16,29.98,9,4,19,0.00
2013-3-4,68.0,53.3,41.0,47.0,39.4,33.0,94,63,29,30.24,30.14,7,2,16,0.00
2013-3-5,77.0,61.8,46.0,61.0,54.1,45.0,99,78,54,30.20,30.09,6,2,15,0.00
2013-3-6,76.0,64.3,54.0,65.0,53.2,36.0,97,71,34,30.11,29.96,10,5,21,0.00
2013-3-7,72.0,58.2,47.0,57.0,47.4,38.0,95,69,43,30.20,30.09,5,2,15,0.00
2013-3-8,77.0,61.9,50.0,57.0,52.2,46.0,97,74,34,30.23,30.12,6,1,12,0.00
2013-3-9,75.0,63.7,51.0,61.0,55.7,50.0,98,77,57,30.21,30.12,7,2,14,0.00
2013-3-10,75.0,69.4,63.0,62.0,58.6,55.0,81,69,56,30.18,30.09,9,4,16,0.00
2013-3-11,77.0,70.9,67.0,64.0,62.1,59.0,83,74,59,30.13,29.97,7,4,16,0.00
2013-3-12,81.0,73.6,67.0,70.0,66.7,63.0,92,79,66,30.01,29.92,7,3,16,0.00
2013-3-13,74.0,65.1,56.0,67.0,57.2,49.0,95,77,43,30.14,29.99,9,2,16,0.00
2013-3-14,70.0,60.2,52.0,54.0,49.3,45.0,96,70,42,30.22,30.11,7,3,18,0.00
2013-3-15,73.0,61.5,50.0,56.0,51.7,46.0,90,72,46,30.27,30.16,5,2,13,0.00
2013-3-16,76.0,63.4,50.0,60.0,54.8,49.0,99,76,50,30.21,30.09,7,2,15,0.00
2013-3-17,76.0,66.1,54.0,63.0,59.2,53.0,98,80,61,30.17,30.04,9,2,15,0.00
2013-3-18,80.0,70.6,64.0,71.0,66.1,62.0,99,87,69,30.09,29.96,8,2,17,0.83
2013-3-19,82.0,71.9,66.0,70.0,67.6,65.0,99,88,65,30.03,29.87,6,1,14,0.83
2013-3-20,83.0,73.8,61.0,72.0,65.6,60.0,100,77,61,29.98,29.82,10,2,20,0.00
2013-3-21,76.0,66.3,55.0,63.0,56.1,50.0,96,73,40,29.96,29.84,6,2,15,0.01
2013-3-22,76.0,65.3,52.0,71.0,59.5,51.0,100,83,63,30.02,29.91,8,2,16,0.01
2013-3-23,88.0,78.2,69.0,75.0,72.2,68.0,100,83,58,29.99,29.79,8,2,15,0.00
2013-3-24,89.0,78.9,71.0,76.0,72.5,67.0,99,83,59,29.90,29.69,13,5,30,0.43
2013-3-25,80.0,72.8,62.0,73.0,60.6,40.0,99,70,34,30.00,29.75,7,2,13,0.43
2013-3-26,68.0,60.1,52.0,47.0,40.8,34.0,69,50,31,30.23,30.00,7,4,20,0.00
2013-3-27,70.0,56.6,46.0,50.0,42.8,35.0,86,61,34,30.27,30.19,6,2,13,0.00
2013-3-28,73.0,59.6,47.0,54.0,47.7,44.0,93,68,38,30.29,30.19,5,2,12,0.00
2013-3-29,75.0,62.6,49.0,56.0,51.8,47.0,94,71,46,30.31,30.22,6,2,15,0.00
2013-3-30,75.0,64.7,52.0,62.0,54.1,51.0,99,72,45,30.28,30.18,7,2,15,0.00
2013-3-31,80.0,69.6,55.0,68.0,61.2,-99.9,98,79,62,30.21,30.05,7,2,16,0.00